| time (UTC) | temp F | wind direction | speed knots | gust knots | rain 1hr in | rain 24hr in | rain mn in | humidity % | barometer mb |
| 20260508030004 | 54 | 152 | 0.9 | 0.9 | 0.00 | 0.77 | 0.58 | 96 | 1012.7 |
| 20260508025504 | 54 | 137 | 0.9 | 1.7 | 0.00 | 0.77 | 0.58 | 96 | 1012.7 |
| 20260508024507 | 54 | 26 | 0.0 | 0.9 | 0.00 | 0.77 | 0.58 | 96 | 1012.4 |
| 20260508024004 | 54 | 81 | 0.0 | 0.0 | 0.00 | 0.77 | 0.58 | 96 | 1012.3 |
| 20260508023003 | 54 | 97 | 0.0 | 0.9 | 0.00 | 0.77 | 0.58 | 96 | 1012.3 |
| 20260508022504 | 54 | 162 | 0.9 | 1.7 | 0.00 | 0.77 | 0.58 | 96 | 1012.2 |
| 20260508022004 | 54 | 72 | 0.9 | 0.9 | 0.00 | 0.77 | 0.58 | 96 | 1012.1 |
| 20260508021504 | 54 | 164 | 0.0 | 0.0 | 0.00 | 0.77 | 0.58 | 96 | 1012.1 |
| 20260508020004 | 54 | 118 | 0.0 | 0.9 | 0.00 | 0.77 | 0.58 | 96 | 1012.1 |
| 20260508015503 | 54 | 137 | 0.0 | 0.9 | 0.00 | 0.77 | 0.58 | 96 | 1012.0 |
| 20260508015004 | 54 | 105 | 0.0 | 0.0 | 0.00 | 0.77 | 0.58 | 96 | 1011.9 |
| 20260508014504 | 54 | 105 | 0.0 | 0.0 | 0.00 | 0.77 | 0.58 | 96 | 1011.7 |
| 20260508014004 | 54 | 105 | 0.0 | 0.0 | 0.00 | 0.77 | 0.58 | 96 | 1011.5 |
| 20260508013503 | 54 | 105 | 0.0 | 0.9 | 0.00 | 0.77 | 0.58 | 96 | 1011.5 |
| 20260508012004 | 54 | 177 | 0.0 | 0.9 | 0.00 | 0.77 | 0.58 | 95 | 1011.5 |
| 20260508011507 | 54 | 81 | 0.0 | 0.0 | 0.00 | 0.77 | 0.58 | 95 | 1011.5 |
| 20260508011004 | 54 | 144 | 0.0 | 0.0 | 0.00 | 0.77 | 0.58 | 95 | 1011.6 |
| 20260508010012 | 54 | 33 | 0.9 | 1.7 | 0.00 | 0.77 | 0.58 | 95 | 1011.3 |
| 20260508005004 | 54 | 139 | 0.0 | 0.9 | 0.00 | 0.77 | 0.58 | 95 | 1011.2 |
| 20260508004504 | 54 | 147 | 0.0 | 1.7 | 0.00 | 0.77 | 0.58 | 95 | 1011.2 |
| 20260508004004 | 54 | 200 | 0.0 | 1.7 | 0.00 | 0.77 | 0.58 | 95 | 1011.0 |
| 20260508003503 | 54 | 12 | 0.9 | 1.7 | 0.00 | 0.77 | 0.58 | 95 | 1010.9 |
| 20260508002504 | 54 | 348 | 0.0 | 0.9 | 0.03 | 0.77 | 0.58 | 95 | 1010.9 |
| 20260508001503 | 55 | 116 | 0.0 | 0.9 | 0.03 | 0.77 | 0.58 | 95 | 1010.8 |
| 20260508001004 | 55 | 136 | 0.9 | 0.9 | 0.03 | 0.77 | 0.58 | 94 | 1011.0 |
| 20260508000503 | 55 | 132 | 0.0 | 0.9 | 0.03 | 0.77 | 0.58 | 94 | 1011.0 |
| 20260508000004 | 55 | 355 | 0.0 | 0.0 | 0.03 | 0.77 | 0.58 | 94 | 1011.0 |
| 20260507235503 | 55 | 355 | 0.0 | 1.7 | 0.03 | 0.77 | 0.58 | 94 | 1010.8 |
| 20260507235003 | 55 | 174 | 0.0 | 0.9 | 0.03 | 0.77 | 0.58 | 94 | 1010.7 |
| 20260507234503 | 55 | 0 | 0.9 | 0.9 | 0.03 | 0.77 | 0.58 | 94 | 1010.6 |
| 20260507234004 | 55 | 321 | 0.0 | 0.9 | 0.03 | 0.77 | 0.58 | 94 | 1010.7 |
| 20260507233503 | 55 | 291 | 0.0 | 0.9 | 0.03 | 0.77 | 0.58 | 94 | 1010.6 |
| 20260507233004 | 55 | 195 | 0.0 | 1.7 | 0.03 | 0.77 | 0.58 | 94 | 1010.4 |
| 20260507232504 | 55 | 309 | 0.9 | 1.7 | 0.00 | 0.73 | 0.55 | 94 | 1010.1 |
| 20260507232004 | 55 | 28 | 0.9 | 1.7 | 0.00 | 0.73 | 0.55 | 94 | 1010.0 |
| 20260507231504 | 55 | 167 | 0.9 | 1.7 | 0.00 | 0.73 | 0.55 | 94 | 1009.9 |
| 20260507231004 | 55 | 283 | 0.0 | 0.9 | 0.00 | 0.73 | 0.55 | 94 | 1009.9 |
| 20260507230504 | 55 | 190 | 0.9 | 2.6 | 0.00 | 0.73 | 0.55 | 94 | 1009.8 |
| 20260507230003 | 55 | 210 | 0.0 | 1.7 | 0.00 | 0.73 | 0.55 | 94 | 1009.9 |
| 20260507225504 | 55 | 187 | 1.7 | 4.3 | 0.00 | 0.73 | 0.55 | 93 | 1010.0 |
| 20260507225003 | 55 | 178 | 1.7 | 4.3 | 0.00 | 0.73 | 0.55 | 93 | 1009.9 |
| 20260507224504 | 55 | 0 | 0.9 | 1.7 | 0.00 | 0.73 | 0.55 | 94 | 1009.9 |
| 20260507224004 | 55 | 125 | 0.9 | 2.6 | 0.00 | 0.73 | 0.55 | 94 | 1009.9 |
| 20260507223504 | 55 | 52 | 0.9 | 2.6 | 0.00 | 0.73 | 0.55 | 94 | 1009.8 |
| 20260507223003 | 55 | 109 | 0.9 | 2.6 | 0.00 | 0.73 | 0.55 | 94 | 1009.7 |
| 20260507222503 | 55 | 53 | 0.9 | 1.7 | 0.00 | 0.73 | 0.55 | 94 | 1009.9 |
| 20260507221504 | 55 | 31 | 0.0 | 0.9 | 0.00 | 0.74 | 0.55 | 94 | 1010.3 |
| 20260507220504 | 56 | 51 | 0.9 | 1.7 | 0.00 | 0.74 | 0.55 | 94 | 1010.4 |
| 20260507220004 | 56 | 203 | 0.0 | 1.7 | 0.00 | 0.74 | 0.55 | 94 | 1010.2 |
| 20260507215503 | 56 | 278 | 0.9 | 2.6 | 0.00 | 0.74 | 0.55 | 94 | 1010.0 |
| 20260507215004 | 56 | 127 | 0.0 | 1.7 | 0.00 | 0.74 | 0.55 | 94 | 1009.9 |
| 20260507214504 | 55 | 179 | 0.0 | 1.7 | 0.00 | 0.74 | 0.55 | 94 | 1009.8 |
| 20260507214004 | 55 | 52 | 0.9 | 1.7 | 0.00 | 0.74 | 0.55 | 95 | 1009.7 |
| 20260507213503 | 55 | 346 | 0.9 | 1.7 | 0.00 | 0.74 | 0.55 | 94 | 1009.9 |
| 20260507212504 | 55 | 356 | 0.9 | 1.7 | 0.00 | 0.74 | 0.55 | 94 | 1009.8 |
| 20260507212004 | 55 | 203 | 0.9 | 1.7 | 0.00 | 0.74 | 0.55 | 94 | 1009.7 |
| 20260507211504 | 55 | 50 | 0.9 | 1.7 | 0.00 | 0.75 | 0.55 | 94 | 1009.6 |
| 20260507211005 | 55 | 339 | 0.9 | 1.7 | 0.00 | 0.75 | 0.55 | 94 | 1009.7 |
| 20260507210504 | 55 | 77 | 0.9 | 1.7 | 0.00 | 0.75 | 0.55 | 94 | 1009.9 |
| 20260507210004 | 55 | 254 | 1.7 | 2.6 | 0.01 | 0.76 | 0.55 | 94 | 1009.9 |
| 20260507205504 | 55 | 125 | 0.0 | 0.9 | 0.01 | 0.77 | 0.55 | 95 | 1009.7 |
| 20260507204504 | 55 | 81 | 0.0 | 1.7 | 0.01 | 0.81 | 0.55 | 95 | 1009.4 |
| 20260507204005 | 56 | 44 | 0.9 | 0.9 | 0.01 | 0.82 | 0.55 | 95 | 1009.4 |
| 20260507184003 | 56 | 80 | 0.9 | 2.6 | 0.01 | 0.82 | 0.55 | 95 | 1009.5 |
| 20260507183503 | 57 | 55 | 0.0 | 2.6 | 0.01 | 0.83 | 0.55 | 95 | 1009.3 |
| 20260507183003 | 57 | 137 | 0.9 | 2.6 | 0.01 | 0.83 | 0.55 | 95 | 1009.2 |
| 20260507182504 | 57 | 296 | 0.9 | 2.6 | 0.01 | 0.83 | 0.55 | 95 | 1009.0 |
| 20260507182003 | 57 | 286 | 0.9 | 2.6 | 0.01 | 0.83 | 0.55 | 95 | 1008.7 |
| 20260507181504 | 57 | 346 | 0.9 | 2.6 | 0.01 | 0.83 | 0.55 | 95 | 1009.0 |
| 20260507181003 | 57 | 351 | 0.9 | 1.7 | 0.01 | 0.83 | 0.55 | 95 | 1009.1 |
| 20260507180503 | 57 | 102 | 1.7 | 2.6 | 0.02 | 0.83 | 0.55 | 95 | 1009.2 |
| 20260507180004 | 58 | 274 | 1.7 | 4.3 | 0.01 | 0.82 | 0.54 | 95 | 1009.1 |
| 20260507175503 | 58 | 16 | 1.7 | 1.7 | 0.01 | 0.82 | 0.54 | 95 | 1008.6 |
| 20260507175004 | 58 | 11 | 1.7 | 5.2 | 0.03 | 0.82 | 0.54 | 95 | 1008.8 |
| 20260507174503 | 58 | 299 | 0.9 | 1.7 | 0.03 | 0.82 | 0.54 | 95 | 1010.0 |
| 20260507173503 | 58 | 333 | 0.9 | 1.7 | 0.03 | 0.82 | 0.53 | 95 | 1009.7 |
| 20260507173004 | 59 | 23 | 0.9 | 1.7 | 0.03 | 0.82 | 0.54 | 95 | 1009.2 |
| 20260507172003 | 59 | 295 | 0.9 | 2.6 | 0.04 | 0.82 | 0.54 | 94 | 1008.9 |
| 20260507170004 | 60 | 119 | 0.9 | 2.6 | 0.05 | 0.82 | 0.53 | 94 | 1008.2 |
| 20260507165503 | 61 | 23 | 1.7 | 1.7 | 0.04 | 0.81 | 0.53 | 94 | 1008.4 |
| 20260507165004 | 62 | 58 | 0.9 | 1.7 | 0.03 | 0.80 | 0.51 | 93 | 1008.7 |
| 20260507164504 | 63 | 297 | 0.9 | 1.7 | 0.04 | 0.80 | 0.51 | 93 | 1008.4 |
| 20260507164004 | 64 | 111 | 1.7 | 2.6 | 0.04 | 0.80 | 0.51 | 93 | 1008.6 |
| 20260507163503 | 66 | 2 | 0.9 | 4.3 | 0.04 | 0.80 | 0.51 | 94 | 1008.8 |
| 20260507162504 | 67 | 211 | 0.0 | 0.0 | 0.09 | 0.80 | 0.50 | 95 | 1009.0 |
| 20260507162003 | 67 | 231 | 0.0 | 1.7 | 0.08 | 0.79 | 0.49 | 95 | 1009.2 |
| 20260507160504 | 67 | 151 | 0.0 | 0.9 | 0.08 | 0.78 | 0.49 | 96 | 1009.0 |
| 20260507160004 | 67 | 256 | 0.9 | 1.7 | 0.07 | 0.78 | 0.48 | 96 | 1009.4 |
| 20260507155003 | 67 | 33 | 0.9 | 0.9 | 0.07 | 0.78 | 0.48 | 96 | 1009.1 |
| 20260507153005 | 67 | 165 | 0.0 | 0.9 | 0.04 | 0.71 | 0.41 | 96 | 1008.8 |
| 20260507152004 | 67 | 352 | 0.0 | 0.9 | 0.05 | 0.71 | 0.41 | 96 | 1009.0 |
| 20260507151504 | 67 | 319 | 0.0 | 0.9 | 0.06 | 0.71 | 0.41 | 96 | 1009.0 |
| 20260507151004 | 67 | 176 | 0.0 | 0.0 | 0.06 | 0.71 | 0.41 | 96 | 1009.0 |
| 20260507150503 | 67 | 176 | 0.0 | 0.0 | 0.06 | 0.71 | 0.41 | 96 | 1009.0 |
| 20260507150003 | 67 | 176 | 0.0 | 0.9 | 0.06 | 0.71 | 0.41 | 96 | 1009.0 |
| 20260507145503 | 67 | 127 | 0.0 | 0.0 | 0.06 | 0.71 | 0.41 | 96 | 1008.9 |
| 20260507144503 | 67 | 177 | 0.0 | 0.9 | 0.08 | 0.71 | 0.41 | 96 | 1009.2 |
| 20260507144003 | 67 | 159 | 0.0 | 0.9 | 0.06 | 0.69 | 0.39 | 96 | 1009.1 |
| 20260507143503 | 67 | 157 | 0.9 | 0.9 | 0.05 | 0.68 | 0.38 | 96 | 1009.0 |
| 20260507143003 | 67 | 330 | 0.0 | 0.9 | 0.04 | 0.67 | 0.37 | 96 | 1009.0 |
| 20260507142504 | 67 | 143 | 0.9 | 1.7 | 0.04 | 0.66 | 0.37 | 97 | 1009.0 |
| 20260507142004 | 67 | 164 | 0.9 | 1.7 | 0.03 | 0.66 | 0.36 | 97 | 1009.1 |
| 20260507141503 | 67 | 168 | 0.0 | 1.7 | 0.02 | 0.65 | 0.36 | 97 | 1009.2 |
| 20260507140503 | 67 | 208 | 0.9 | 1.7 | 0.03 | 0.64 | 0.35 | 97 | 1009.0 |
| 20260507140003 | 67 | 118 | 0.9 | 1.7 | 0.03 | 0.64 | 0.35 | 97 | 1009.1 |
| 20260507135503 | 67 | 165 | 0.9 | 1.7 | 0.03 | 0.64 | 0.35 | 97 | 1009.2 |
| 20260507134504 | 67 | 167 | 0.9 | 2.6 | 0.03 | 0.62 | 0.33 | 97 | 1009.6 |
| 20260507134003 | 67 | 146 | 0.9 | 1.7 | 0.03 | 0.62 | 0.33 | 97 | 1009.5 |
| 20260507133504 | 67 | 169 | 1.7 | 1.7 | 0.03 | 0.62 | 0.33 | 97 | 1009.6 |
| 20260507133003 | 66 | 170 | 0.9 | 1.7 | 0.03 | 0.62 | 0.33 | 97 | 1009.5 |
| 20260507131503 | 66 | 168 | 0.0 | 2.6 | 0.04 | 0.62 | 0.33 | 97 | 1009.3 |
| 20260507130503 | 66 | 200 | 0.9 | 1.7 | 0.03 | 0.61 | 0.32 | 97 | 1009.4 |
| 20260507125003 | 66 | 319 | 0.9 | 0.9 | 0.01 | 0.59 | 0.31 | 97 | 1009.7 |
| 20260507124504 | 66 | 161 | 0.9 | 1.7 | 0.01 | 0.59 | 0.31 | 97 | 1009.7 |
| 20260507124003 | 66 | 198 | 0.9 | 1.7 | 0.01 | 0.59 | 0.31 | 97 | 1009.6 |
| 20260507123503 | 65 | 74 | 0.0 | 0.0 | 0.01 | 0.59 | 0.30 | 97 | 1009.6 |
| 20260507123004 | 65 | 74 | 0.0 | 0.0 | 0.01 | 0.59 | 0.30 | 97 | 1009.6 |
| 20260507122503 | 65 | 74 | 0.0 | 0.9 | 0.01 | 0.59 | 0.30 | 97 | 1009.6 |
| 20260507122004 | 65 | 98 | 0.0 | 0.0 | 0.01 | 0.58 | 0.30 | 97 | 1009.5 |
| 20260507121504 | 65 | 97 | 0.0 | 0.9 | 0.01 | 0.58 | 0.30 | 96 | 1009.5 |
| 20260507121004 | 65 | 130 | 0.0 | 0.9 | 0.01 | 0.58 | 0.30 | 97 | 1009.6 |
| 20260507120004 | 65 | 79 | 0.0 | 0.0 | 0.01 | 0.58 | 0.30 | 96 | 1009.9 |
| 20260507115504 | 65 | 79 | 0.0 | 0.9 | 0.01 | 0.58 | 0.30 | 97 | 1009.8 |
| 20260507115003 | 65 | 46 | 0.9 | 1.7 | 0.01 | 0.58 | 0.30 | 96 | 1009.5 |
| 20260507114504 | 65 | 92 | 0.0 | 0.9 | 0.01 | 0.58 | 0.30 | 97 | 1009.9 |
| 20260507113504 | 65 | 211 | 0.0 | 0.9 | 0.00 | 0.58 | 0.29 | 96 | 1010.0 |
| 20260507112504 | 65 | 119 | 0.0 | 0.9 | 0.00 | 0.58 | 0.29 | 96 | 1010.0 |
| 20260507112003 | 65 | 278 | 0.0 | 1.7 | 0.00 | 0.58 | 0.29 | 96 | 1010.0 |
| 20260507111504 | 65 | 226 | 0.0 | 0.9 | 0.00 | 0.58 | 0.29 | 96 | 1010.0 |
| 20260507110503 | 65 | 222 | 0.0 | 0.9 | 0.00 | 0.58 | 0.29 | 96 | 1010.0 |
| 20260507110004 | 65 | 344 | 0.0 | 0.0 | 0.00 | 0.58 | 0.29 | 96 | 1009.7 |
| 20260507105504 | 65 | 273 | 0.0 | 0.9 | 0.00 | 0.58 | 0.29 | 96 | 1009.6 |
| 20260507105004 | 65 | 175 | 0.0 | 0.9 | 0.00 | 0.58 | 0.29 | 96 | 1009.6 |
| 20260507104504 | 65 | 27 | 0.0 | 0.9 | 0.00 | 0.58 | 0.29 | 96 | 1009.5 |
| 20260507104003 | 65 | 70 | 0.9 | 1.7 | 0.00 | 0.58 | 0.29 | 96 | 1009.5 |
| 20260507103504 | 64 | 354 | 0.0 | 0.9 | 0.00 | 0.58 | 0.29 | 96 | 1009.6 |
| 20260507103004 | 64 | 231 | 0.0 | 0.9 | 0.00 | 0.58 | 0.29 | 96 | 1009.6 |
| 20260507102004 | 64 | 268 | 0.9 | 0.9 | 0.00 | 0.58 | 0.29 | 96 | 1009.5 |
| 20260507101503 | 64 | 87 | 0.9 | 0.9 | 0.00 | 0.58 | 0.29 | 96 | 1009.5 |
| 20260507100004 | 64 | 262 | 0.0 | 0.9 | 0.00 | 0.58 | 0.29 | 96 | 1009.5 |
| 20260507095503 | 64 | 148 | 0.0 | 1.7 | 0.00 | 0.58 | 0.29 | 96 | 1009.5 |
| 20260507095003 | 64 | 329 | 0.0 | 0.9 | 0.00 | 0.58 | 0.29 | 96 | 1009.5 |
| 20260507094004 | 64 | 113 | 0.0 | 0.9 | 0.00 | 0.58 | 0.29 | 96 | 1009.7 |
| 20260507093503 | 64 | 329 | 0.0 | 0.9 | 0.00 | 0.58 | 0.29 | 96 | 1009.6 |
| 20260507093004 | 64 | 132 | 0.9 | 0.9 | 0.00 | 0.58 | 0.29 | 96 | 1009.6 |
| 20260507092503 | 64 | 81 | 0.0 | 0.0 | 0.00 | 0.58 | 0.29 | 96 | 1009.6 |
| 20260507092004 | 64 | 81 | 0.9 | 0.9 | 0.00 | 0.58 | 0.29 | 96 | 1009.5 |
| 20260507091004 | 64 | 196 | 0.0 | 1.7 | 0.00 | 0.58 | 0.29 | 96 | 1009.5 |
| 20260507090503 | 64 | 231 | 0.0 | 0.0 | 0.00 | 0.58 | 0.29 | 96 | 1009.7 |
| 20260507090005 | 64 | 231 | 0.0 | 0.0 | 0.00 | 0.58 | 0.29 | 96 | 1009.8 |
| 20260507085504 | 64 | 231 | 0.0 | 0.9 | 0.00 | 0.58 | 0.29 | 96 | 1009.8 |
| 20260507085003 | 64 | 308 | 0.0 | 0.0 | 0.00 | 0.58 | 0.29 | 96 | 1009.9 |
| 20260507084504 | 64 | 148 | 0.0 | 0.9 | 0.00 | 0.58 | 0.29 | 96 | 1009.9 |
| 20260507083503 | 64 | 50 | 0.0 | 0.9 | 0.00 | 0.58 | 0.29 | 96 | 1009.9 |
| 20260507083004 | 64 | 150 | 0.9 | 0.9 | 0.00 | 0.58 | 0.29 | 96 | 1010.1 |
| 20260507082504 | 64 | 164 | 0.9 | 1.7 | 0.00 | 0.58 | 0.29 | 96 | 1010.4 |
| 20260507082004 | 64 | 296 | 0.9 | 1.7 | 0.00 | 0.58 | 0.29 | 96 | 1010.4 |
| 20260507081504 | 64 | 211 | 0.9 | 0.9 | 0.00 | 0.58 | 0.29 | 96 | 1010.4 |
| 20260507081004 | 64 | 170 | 0.0 | 0.9 | 0.00 | 0.58 | 0.29 | 96 | 1010.2 |
| 20260507080503 | 64 | 167 | 0.0 | 0.9 | 0.00 | 0.58 | 0.29 | 96 | 1010.1 |
| 20260507075503 | 64 | 55 | 0.0 | 0.9 | 0.00 | 0.58 | 0.29 | 96 | 1010.0 |
| 20260507075003 | 64 | 68 | 0.0 | 0.9 | 0.00 | 0.58 | 0.29 | 96 | 1010.1 |
| 20260507074504 | 64 | 43 | 0.0 | 0.9 | 0.00 | 0.58 | 0.29 | 96 | 1010.3 |
| 20260507074004 | 64 | 158 | 0.0 | 0.9 | 0.00 | 0.58 | 0.29 | 96 | 1010.5 |
| 20260507073004 | 64 | 130 | 0.0 | 1.7 | 0.00 | 0.58 | 0.29 | 96 | 1010.5 |
| 20260507071504 | 64 | 311 | 0.0 | 0.0 | 0.04 | 0.58 | 0.29 | 96 | 1010.7 |
| 20260507070504 | 64 | 287 | 0.0 | 0.0 | 0.04 | 0.58 | 0.29 | 96 | 1010.9 |
| 20260507070008 | 64 | 287 | 0.0 | 0.0 | 0.03 | 0.58 | 0.29 | 96 | 1010.7 |
| 20260507065504 | 65 | 287 | 0.0 | 0.0 | 0.03 | 0.58 | 0.29 | 96 | 1010.5 |
| 20260507065004 | 65 | 287 | 0.0 | 0.0 | 0.03 | 0.58 | 0.29 | 95 | 1010.8 |
| 20260507064503 | 65 | 287 | 0.0 | 0.0 | 0.03 | 0.58 | 0.29 | 95 | 1011.2 |
| 20260507064004 | 65 | 183 | 0.9 | 0.9 | 0.03 | 0.58 | 0.29 | 95 | 1011.3 |
| 20260507063003 | 65 | 294 | 0.0 | 0.0 | 0.04 | 0.58 | 0.29 | 95 | 1011.5 |
| 20260507062503 | 65 | 294 | 0.0 | 0.0 | 0.04 | 0.58 | 0.29 | 95 | 1011.4 |
| 20260507062004 | 65 | 294 | 0.0 | 0.0 | 0.09 | 0.53 | 0.25 | 95 | 1011.2 |
| 20260507061504 | 65 | 294 | 0.0 | 0.9 | 0.10 | 0.53 | 0.25 | 95 | 1010.9 |
| 20260507060503 | 65 | 161 | 0.9 | 1.7 | 0.15 | 0.53 | 0.25 | 95 | 1011.4 |
| 20260507060004 | 65 | 206 | 0.9 | 1.7 | 0.17 | 0.53 | 0.26 | 95 | 1011.4 |
| 20260507055503 | 65 | 101 | 0.0 | 0.0 | 0.17 | 0.53 | 0.26 | 95 | 1011.4 |
| 20260507055004 | 65 | 101 | 0.0 | 0.9 | 0.20 | 0.53 | 0.26 | 95 | 1011.2 |
| 20260507054503 | 65 | 143 | 0.9 | 1.7 | 0.22 | 0.53 | 0.26 | 94 | 1011.4 |
| 20260507053004 | 65 | 122 | 0.9 | 1.7 | 0.24 | 0.53 | 0.26 | 94 | 1011.4 |
| 20260507052503 | 65 | 344 | 0.9 | 1.7 | 0.25 | 0.52 | 0.25 | 94 | 1011.3 |
| 20260507052004 | 65 | 134 | 0.9 | 1.7 | 0.16 | 0.43 | 0.16 | 94 | 1010.9 |
| 20260507051503 | 65 | 122 | 0.9 | 1.7 | 0.15 | 0.42 | 0.15 | 94 | 1011.4 |
| 20260507051004 | 66 | 145 | 0.9 | 1.7 | 0.13 | 0.40 | 0.13 | 94 | 1011.8 |
| 20260507050503 | 66 | 157 | 0.9 | 1.7 | 0.10 | 0.37 | 0.10 | 93 | 1011.4 |
| 20260507050003 | 66 | 187 | 0.9 | 1.7 | 0.09 | 0.36 | 0.09 | 93 | 1011.2 |
| 20260507045504 | 66 | 165 | 0.9 | 1.7 | 0.22 | 0.36 | 0.09 | 93 | 1010.9 |
| 20260507044004 | 67 | 102 | 0.9 | 2.6 | 0.17 | 0.31 | 0.04 | 91 | 1012.6 |
| 20260507043504 | 67 | 159 | 0.9 | 1.7 | 0.17 | 0.30 | 0.03 | 90 | 1012.7 |
| 20260507042503 | 68 | 258 | 0.9 | 4.3 | 0.14 | 0.28 | 0.01 | 88 | 1013.0 |
| 20260507042004 | 67 | 268 | 1.7 | 4.3 | 0.15 | 0.27 | 0.00 | 88 | 1013.0 |
| 20260507041503 | 67 | 192 | 1.7 | 1.7 | 0.15 | 0.27 | 0.00 | 89 | 1013.0 |
| 20260507041003 | 67 | 163 | 1.7 | 1.7 | 0.16 | 0.27 | 0.00 | 92 | 1012.8 |
| 20260507040504 | 67 | 278 | 0.9 | 0.9 | 0.16 | 0.27 | 0.00 | 92 | 1012.5 |
| 20260507040004 | 67 | 168 | 0.9 | 1.7 | 0.03 | 0.14 | 0.00 | 91 | 1012.4 |
| 20260507035503 | 67 | 318 | 0.0 | 0.9 | 0.03 | 0.14 | 0.13 | 91 | 1012.2 |
| 20260507035004 | 67 | 241 | 0.0 | 0.0 | 0.03 | 0.14 | 0.12 | 90 | 1012.0 |
| 20260507034503 | 67 | 206 | 0.0 | 0.9 | 0.03 | 0.14 | 0.12 | 89 | 1011.7 |
| 20260507034004 | 67 | 165 | 0.0 | 0.9 | 0.03 | 0.14 | 0.12 | 88 | 1011.5 |
| 20260507033503 | 68 | 253 | 0.0 | 1.7 | 0.02 | 0.13 | 0.12 | 88 | 1011.5 |
| 20260507032504 | 68 | 182 | 0.9 | 1.7 | 0.02 | 0.13 | 0.12 | 86 | 1012.0 |
| 20260507032004 | 68 | 153 | 0.9 | 1.7 | 0.01 | 0.12 | 0.11 | 85 | 1012.0 |
| 20260507031004 | 68 | 182 | 0.0 | 1.7 | 0.00 | 0.11 | 0.10 | 85 | 1012.0 |
| 20260507030503 | 67 | 172 | 0.0 | 0.9 | 0.00 | 0.11 | 0.10 | 85 | 1011.7 |